Погода в Казане

Узбекистан     39°48′12″N   67°02′44″E
темп.,
°C
ветер,
м/с
пор.,
м/с
влажн.,
%
обл.,
%
осадки,
мм/ч
давл.,
гПа
погр.,
м
3 августа, вт
вт323:00+29вюв46260 0.0 1003230
02:00+28вюв34260 0.0 1003104
05:00+26вюв33280 0.0 100377
08:00+30в23210 0.0 1004345
11:00+36всв53142 0.0 10032905
14:00+38св65117 0.0 10024099
17:00+36вюв761551 0.0 10023095
20:00+29в45294 0.3 1005202
4 августа, ср
ср423:00+28юв24240 0.3 1003103
02:00+26юв22310 0.0 100466
05:00+25вюв23330 0.0 100457
08:00+29в23250 0.0 1005270
11:00+36с34120 0.0 10041934
14:00+39ссв7598 0.0 10024656
17:00+37юв671320 0.0 10032904
20:00+32юв58192 0.0 1003302
5 августа, чт
чт523:00+29в23240 0.0 1005117
02:00+27ююв34240 0.0 1004169
05:00+26вюв22251 0.0 100539
08:00+29в11191 0.0 1005262
11:00+35ссз13140 0.0 10031612
14:00+39с22104 0.0 10014592
17:00+38св751132 0.0 10004331
20:00+34ссв6101478 0.0 1002909
6 августа, пт
пт623:00+31св713185 0.0 1003733
02:00+28в37231 0.0 1004328
05:00+26в23260 0.0 1005104
08:00+30св38190 0.0 1005535
11:00+35св65130 0.0 10042109
14:00+37ссв74110 0.0 10033116
17:00+37ссв75100 0.0 10023495
20:00+32св510120 0.0 1003796
7 августа, сб
сб723:00+29всв49160 0.0 1004327
02:00+27в35190 0.0 1004127
05:00+26в34223 0.0 100595
08:00+30всв24162 0.0 1006302
11:00+36св66121 0.0 10053005
14:00+37ссв64110 0.0 10043559
17:00+37ссв65103 0.0 10044231
20:00+32св47141 0.0 1005507